Home   Weather   52°14'N, 8°01'E   Past weeks
Flag for Germany

Past Weather in 52°14'N, 8°01'E, Germany — Yesterday and Last 2 Weeks

Now
50 °F

Clear.


Feels Like: 47 °F
Forecast: 54 / 51 °F
Wind: 8 mph from Southeast

Location: Muenster / Osnabrueck

Current Time: Oct 19, 2019 at 3:18:40 am

Latest Report: Oct 19, 2019 at 2:20 am


Visibility: 10 mi

Pressure: 29.74 "Hg

Humidity: 76%

Dew Point: 43 °F

Location of 52°14'N, 8°01'ELocation

Past Weather in 52°14'N, 8°01'E — Graph

°F

52°14'N, 8°01'E Temperature Yesterday

Maximum temperature yesterday: 63 °F (at 11:50 am)
Minimum temperature yesterday: 50 °F (at 11:50 pm)
Average temperature yesterday: 56 °F

High & Low Weather Summary for the Past Weeks

 TemperatureHumidityPressure
High72 °F (Oct 13, 3:50 pm)100% (Oct 4, 4:20 pm)30.12 "Hg (Oct 4, 4:20 pm)
Low39 °F (Oct 7, 6:50 am)59% (Oct 5, 3:50 pm)29.53 "Hg (Oct 4, 5:50 pm)
Average55 °F82%29.82 "Hg
* Reported Oct 4 2:20 am — Oct 19 2:20 am, 52°14'N, 8°01'E. Weather by CustomWeather, © 2019

Note: Actual official high and low records may vary slightly from our data, if they occured in-between our weather recording intervals... More about our weather records

Advertising

52°14'N, 8°01'E Weather History for the Previous 24 Hours

Scroll right to see more
 ConditionsComfort  
Time TempWeatherWind HumidityBarometerVisibility
2:20 am
Sat, Oct 19
50 °FClear.8 mph76%29.74 "Hg10 mi
1:50 am50 °FClear.7 mph76%29.74 "Hg10 mi
1:20 am50 °FClear.8 mph76%29.74 "Hg10 mi
12:50 am50 °FClear.8 mph76%29.74 "Hg10 mi
12:20 am50 °FClear.9 mph76%29.74 "Hg10 mi
11:50 pm
Fri, Oct 18
50 °FClear.8 mph76%29.74 "Hg10 mi
11:20 pm52 °FClear.8 mph72%29.74 "Hg10 mi
10:50 pm54 °FClear.9 mph67%29.74 "Hg10 mi
10:20 pm54 °FClear.10 mph67%29.74 "Hg10 mi
9:50 pm54 °FPassing clouds.9 mph67%29.74 "HgN/A
9:20 pm54 °FClear.9 mph67%29.74 "Hg10 mi
8:50 pm54 °FPassing clouds.9 mph72%29.74 "HgN/A
8:20 pm54 °FPassing clouds.12 mph72%29.74 "HgN/A
7:50 pm54 °FPassing clouds.10 mph72%29.74 "HgN/A
7:20 pm55 °FPassing clouds.10 mph67%29.74 "HgN/A
6:50 pm55 °FPassing clouds.13 mph67%29.74 "HgN/A
6:20 pm55 °FPassing clouds.13 mph67%29.71 "HgN/A
5:50 pm57 °FPassing clouds.15 mph63%29.71 "HgN/A
5:20 pm57 °FPassing clouds.16 mph63%29.68 "HgN/A
4:50 pm57 °FPassing clouds.14 mph63%29.68 "HgN/A
4:20 pm55 °FPassing clouds.16 mph67%29.68 "HgN/A
3:50 pm55 °FPartly sunny.17 mph67%29.68 "HgN/A
3:20 pm55 °FScattered clouds.18 mph72%29.65 "HgN/A
2:50 pm54 °FPassing clouds.15 mph77%29.65 "HgN/A
2:20 pm54 °FSprinkles. Passing clouds.16 mph77%29.65 "HgN/A
1:50 pm54 °FSprinkles. Passing clouds.13 mph82%29.62 "HgN/A
1:20 pm54 °FThunderstorms. Scattered clouds.24 mph82%29.65 "Hg4 mi
12:50 pm63 °FScattered showers. Scattered clouds.14 mph68%29.59 "HgN/A
12:20 pm63 °FScattered clouds.14 mph68%29.62 "HgN/A
11:50 am63 °FPassing clouds.17 mph73%29.65 "HgN/A
11:20 am61 °FPassing clouds.12 mph77%29.65 "HgN/A
10:20 am57 °FScattered clouds.7 mph82%29.68 "HgN/A
9:50 am55 °FScattered clouds.7 mph88%29.68 "HgN/A
9:20 am55 °FScattered clouds.6 mph88%29.71 "HgN/A
8:50 am55 °FLight rain. Scattered clouds.9 mph88%29.71 "HgN/A
8:20 am55 °FLight rain. Scattered clouds.6 mph88%29.71 "HgN/A
7:50 am55 °FPassing clouds.6 mph82%29.71 "HgN/A
7:20 am55 °FPassing clouds.7 mph82%29.71 "HgN/A
6:50 am55 °FClear.7 mph88%29.71 "Hg10 mi
6:20 am55 °FPassing clouds.7 mph88%29.74 "HgN/A
5:50 am55 °FClear.8 mph88%29.74 "Hg10 mi
5:20 am54 °FClear.7 mph94%29.77 "Hg10 mi
4:50 am54 °FClear.6 mph94%29.77 "Hg10 mi
4:20 am54 °FClear.3 mph94%29.77 "Hg10 mi
3:50 am54 °FClear.3 mph100%29.77 "Hg10 mi
3:20 am55 °FPassing clouds.5 mph94%29.77 "HgN/A
Weather by CustomWeather, © 2019

See weather overview